Location: Chervonnoye
(48.6000°N, 34.4000°E)
Time: 15:21:59
(UTC+00:00)

CZ-4B R/B - Pass Details

Date: 23 November 2020
Orbit: 809 x 881 km, 99.1° (Epoch: 27 January)

Event Time Altitude Azimuth Distance (km) Brightness Sun altitude
Rises 14:27:05 0° 149° (SSE) 3,360 6.3 -5.6°
Reaches altitude 10° 14:29:29 10° 145° (SE) 2,421 5.5 -6.0°
Maximum altitude 14:34:41 55° 68° (ENE) 979 3.2 -6.7°
Drops below altitude 10° 14:39:51 10° 352° (N) 2,410 5.4 -7.5°
Sets 14:42:14 0° 349° (NNW) 3,344 6.2 -7.9°
